Time,TemperatureF,DewpointF,PressureIn,WindDirection,WindDirectionDegrees,WindSpeedMPH,WindSpeedGustMPH,Humidity,HourlyPrecipIn,Conditions,Clouds,dailyrainin,SolarRadiationWatts/m^2,SoftwareType,DateUTC
2013-06-27 04:33:00,54.0,41.0,-100.00,NE,54,0.0,0.0,62,-99.99,,,0.00,0.000000,,2013-06-27 11:33:00,
2013-06-27 04:43:00,54.0,41.0,-100.00,NE,54,0.0,0.0,62,-99.99,,,0.00,0.000000,,2013-06-27 11:43:00,
2013-06-27 08:33:00,66.0,48.0,-100.00,ESE,121,1.0,3.0,52,-99.99,,,0.00,38.000000,,2013-06-27 15:33:00,
2013-06-27 08:52:00,81.0,35.0,-100.00,South,188,4.0,8.0,19,-99.99,,,0.00,205.000000,,2013-06-27 15:52:00,
2013-06-27 09:11:00,81.0,35.0,-100.00,South,188,4.0,8.0,19,-99.99,,,0.00,205.000000,,2013-06-27 16:11:00,
2013-06-27 09:23:00,81.0,35.0,-100.00,South,188,4.0,8.0,19,-99.99,,,0.00,205.000000,,2013-06-27 16:23:00,
2013-06-27 09:34:00,81.0,35.0,-100.00,South,188,4.0,8.0,19,-99.99,,,0.00,205.000000,,2013-06-27 16:34:00,
2013-06-27 09:43:00,81.0,35.0,-100.00,South,188,4.0,8.0,19,-99.99,,,0.00,205.000000,,2013-06-27 16:43:00,
2013-06-27 09:52:00,85.0,32.0,-100.00,SW,230,4.0,12.0,15,0.00,,,0.00,721.000000,,2013-06-27 16:52:00,
2013-06-27 10:22:00,85.0,32.0,-100.00,SW,230,4.0,12.0,15,0.00,,,0.00,721.000000,,2013-06-27 17:22:00,
2013-06-27 10:33:00,85.0,32.0,-100.00,SW,230,4.0,12.0,15,0.00,,,0.00,721.000000,,2013-06-27 17:33:00,
2013-06-27 10:43:00,85.0,32.0,-100.00,SW,230,4.0,12.0,15,0.00,,,0.00,721.000000,,2013-06-27 17:43:00,
2013-06-27 11:52:00,88.0,38.0,-100.00,SSE,155,4.0,11.0,17,0.00,,,0.00,1003.000000,,2013-06-27 18:52:00,
2013-06-27 12:33:00,88.0,38.0,-100.00,SSE,155,4.0,11.0,17,0.00,,,0.00,1003.000000,,2013-06-27 19:33:00,
2013-06-27 12:42:00,88.0,38.0,-100.00,SSE,155,4.0,11.0,17,0.00,,,0.00,1003.000000,,2013-06-27 19:42:00,
2013-06-27 13:11:00,86.0,44.0,-100.00,ESE,123,4.0,11.0,23,0.00,,,0.00,1035.000000,,2013-06-27 20:11:00,
2013-06-27 13:22:00,86.0,44.0,-100.00,ESE,123,4.0,11.0,23,0.00,,,0.00,1035.000000,,2013-06-27 20:22:00,
2013-06-27 13:35:00,86.0,44.0,-100.00,ESE,123,4.0,11.0,23,0.00,,,0.00,1035.000000,,2013-06-27 20:35:00,
2013-06-27 13:45:00,86.0,44.0,-100.00,ESE,123,4.0,11.0,23,0.00,,,0.00,1035.000000,,2013-06-27 20:45:00,
2013-06-27 13:52:00,88.0,46.0,-100.00,NNE,27,3.0,8.0,23,0.00,,,0.00,1045.000000,,2013-06-27 20:52:00,
2013-06-27 14:24:00,88.0,46.0,-100.00,NNE,27,3.0,8.0,23,0.00,,,0.00,1045.000000,,2013-06-27 21:24:00,
2013-06-27 14:34:00,88.0,46.0,-100.00,NNE,27,3.0,8.0,23,0.00,,,0.00,1045.000000,,2013-06-27 21:34:00,
2013-06-27 14:44:00,88.0,46.0,-100.00,NNE,27,3.0,8.0,23,0.00,,,0.00,1045.000000,,2013-06-27 21:44:00,
2013-06-27 14:52:00,89.0,46.0,-100.00,NNW,333,3.0,8.0,23,0.00,,,0.00,974.000000,,2013-06-27 21:52:00,
2013-06-27 15:22:00,89.0,46.0,-100.00,NNW,333,3.0,8.0,23,0.00,,,0.00,974.000000,,2013-06-27 22:22:00,
2013-06-27 15:33:00,89.0,46.0,-100.00,NNW,333,3.0,8.0,23,0.00,,,0.00,974.000000,,2013-06-27 22:33:00,
2013-06-27 15:45:00,89.0,46.0,-100.00,NNW,333,3.0,8.0,23,0.00,,,0.00,974.000000,,2013-06-27 22:45:00,
2013-06-27 15:52:00,88.0,49.0,-100.00,NW,305,4.0,10.0,26,-99.99,,,0.00,881.000000,,2013-06-27 22:52:00,
2013-06-27 16:15:00,88.0,49.0,-100.00,NW,305,4.0,10.0,26,-99.99,,,0.00,881.000000,,2013-06-27 23:15:00,
2013-06-27 16:24:00,88.0,49.0,-100.00,NW,305,4.0,10.0,26,-99.99,,,0.00,881.000000,,2013-06-27 23:24:00,
2013-06-27 16:43:00,88.0,49.0,-100.00,NW,305,4.0,10.0,26,-99.99,,,0.00,881.000000,,2013-06-27 23:43:00,
2013-06-27 16:52:00,84.0,48.0,-100.00,WSW,250,4.0,12.0,29,0.00,,,0.00,718.000000,,2013-06-27 23:52:00,
2013-06-27 17:25:00,84.0,48.0,-100.00,WSW,250,4.0,12.0,29,0.00,,,0.00,718.000000,,2013-06-28 00:25:00,
2013-06-27 17:34:00,84.0,48.0,-100.00,WSW,250,4.0,12.0,29,0.00,,,0.00,718.000000,,2013-06-28 00:34:00,
2013-06-27 17:44:00,84.0,48.0,-100.00,WSW,250,4.0,12.0,29,0.00,,,0.00,718.000000,,2013-06-28 00:44:00,
2013-06-27 17:52:00,79.0,48.0,-100.00,SW,230,4.0,10.0,34,0.00,,,0.00,430.000000,,2013-06-28 00:52:00,
2013-06-27 18:23:00,79.0,48.0,-100.00,SW,230,4.0,10.0,34,0.00,,,0.00,430.000000,,2013-06-28 01:23:00,
2013-06-27 18:34:00,79.0,48.0,-100.00,SW,230,4.0,10.0,34,0.00,,,0.00,430.000000,,2013-06-28 01:34:00,
2013-06-27 18:45:00,79.0,48.0,-100.00,SW,230,4.0,10.0,34,0.00,,,0.00,430.000000,,2013-06-28 01:45:00,
2013-06-27 18:52:00,75.0,45.0,-100.00,South,184,2.0,8.0,34,0.00,,,0.00,129.000000,,2013-06-28 01:52:00,
2013-06-27 19:35:00,75.0,45.0,-100.00,South,184,2.0,8.0,34,0.00,,,0.00,129.000000,,2013-06-28 02:35:00,
2013-06-27 19:45:00,75.0,45.0,-100.00,South,184,2.0,8.0,34,0.00,,,0.00,129.000000,,2013-06-28 02:45:00,
2013-06-27 19:52:00,71.0,45.0,-100.00,NE,52,0.0,4.0,39,0.00,,,0.00,49.000000,,2013-06-28 02:52:00,
2013-06-27 20:14:00,71.0,45.0,-100.00,NE,52,0.0,4.0,39,0.00,,,0.00,49.000000,,2013-06-28 03:14:00,
2013-06-27 20:24:00,71.0,45.0,-100.00,NE,52,0.0,4.0,39,0.00,,,0.00,49.000000,,2013-06-28 03:24:00,
2013-06-27 20:35:00,71.0,45.0,-100.00,NE,52,0.0,4.0,39,0.00,,,0.00,49.000000,,2013-06-28 03:35:00,
2013-06-27 20:44:00,71.0,45.0,-100.00,NE,52,0.0,4.0,39,0.00,,,0.00,49.000000,,2013-06-28 03:44:00,
2013-06-27 20:52:00,62.0,41.0,-100.00,NE,55,0.0,2.0,46,0.00,,,0.00,2.000000,,2013-06-28 03:52:00,
2013-06-27 21:11:00,62.0,41.0,-100.00,NE,55,0.0,2.0,46,0.00,,,0.00,2.000000,,2013-06-28 04:11:00,
2013-06-27 21:22:00,62.0,41.0,-100.00,NE,55,0.0,2.0,46,0.00,,,0.00,2.000000,,2013-06-28 04:22:00,
2013-06-27 21:33:00,62.0,41.0,-100.00,NE,55,0.0,2.0,46,0.00,,,0.00,2.000000,,2013-06-28 04:33:00,
2013-06-27 21:43:00,62.0,41.0,-100.00,NE,55,0.0,2.0,46,0.00,,,0.00,2.000000,,2013-06-28 04:43:00,